Time,TemperatureF,DewpointF,PressureIn,WindDirection,WindDirectionDegrees,WindSpeedMPH,WindSpeedGustMPH,Humidity,HourlyPrecipIn,Conditions,Clouds,dailyrainin,SoftwareType,DateUTC
2013-07-22 00:01:00,0.0,-10.3,29.35,North,0,0.0,0.0,61,0.00,,---,0.00,VWS V14.01,2013-07-22 04:01:00,
2013-07-22 00:02:00,0.0,-10.3,29.35,North,0,0.0,0.0,61,0.00,,---,0.00,VWS V14.01,2013-07-22 04:02:00,
2013-07-22 00:03:00,0.0,-10.3,29.35,North,0,0.0,0.0,61,0.00,,---,0.00,VWS V14.01,2013-07-22 04:03:00,
2013-07-22 00:07:00,-0.4,-10.6,29.35,North,0,0.0,0.0,61,0.00,,---,0.00,VWS V14.01,2013-07-22 04:07:00,
2013-07-22 00:12:00,-0.6,-10.8,29.35,North,0,0.0,0.0,61,0.00,,---,0.00,VWS V14.01,2013-07-22 04:12:00,
2013-07-22 00:17:00,-0.6,-10.8,29.35,North,0,0.0,0.0,61,0.00,,---,0.00,VWS V14.01,2013-07-22 04:17:00,
2013-07-22 00:22:00,-0.8,-11.0,29.35,North,0,0.0,0.0,61,0.00,,---,0.00,VWS V14.01,2013-07-22 04:22:00,
2013-07-22 00:27:00,-0.9,-11.1,29.35,North,0,0.0,0.0,61,0.00,,---,0.00,VWS V14.01,2013-07-22 04:27:00,
2013-07-22 00:32:00,-0.9,-11.1,29.35,North,0,0.0,0.0,61,0.00,,---,0.00,VWS V14.01,2013-07-22 04:32:00,
2013-07-22 00:37:00,-1.3,-11.5,29.35,North,0,0.0,0.0,61,0.00,,---,0.00,VWS V14.01,2013-07-22 04:37:00,
2013-07-22 00:42:00,-1.3,-11.5,29.35,North,0,0.0,0.0,61,0.00,,---,0.00,VWS V14.01,2013-07-22 04:42:00,
2013-07-22 00:47:00,-1.7,-11.8,29.35,North,0,0.0,0.0,61,0.00,,---,0.00,VWS V14.01,2013-07-22 04:47:00,
2013-07-22 00:52:00,-1.8,-12.0,29.35,North,0,0.0,0.0,61,0.00,,---,0.00,VWS V14.01,2013-07-22 04:52:00,
2013-07-22 00:57:00,-1.8,-12.0,29.35,North,0,0.0,0.0,61,0.00,,---,0.00,VWS V14.01,2013-07-22 04:57:00,
2013-07-22 01:02:00,-2.0,-12.2,29.35,North,0,0.0,0.0,61,0.00,,---,0.00,VWS V14.01,2013-07-22 05:02:00,
2013-07-22 01:07:00,-2.2,-12.3,29.35,North,0,0.0,0.0,61,0.00,,---,0.00,VWS V14.01,2013-07-22 05:07:00,
2013-07-22 01:12:00,-2.2,-12.3,29.35,North,0,0.0,0.0,61,0.00,,---,0.00,VWS V14.01,2013-07-22 05:12:00,
2013-07-22 01:17:00,-2.4,-12.5,29.35,North,0,0.0,0.0,61,0.00,,---,0.00,VWS V14.01,2013-07-22 05:17:00,
2013-07-22 01:22:00,-1.8,-12.0,29.35,North,0,0.0,0.0,61,0.00,,---,0.00,VWS V14.01,2013-07-22 05:22:00,
2013-07-22 01:27:00,-1.3,-11.5,29.35,North,0,0.0,0.0,61,0.00,,---,0.00,VWS V14.01,2013-07-22 05:27:00,
2013-07-22 01:32:00,-0.6,-10.8,29.35,North,0,0.0,0.0,61,0.00,,---,0.00,VWS V14.01,2013-07-22 05:32:00,
2013-07-22 01:37:00,0.0,-10.3,29.35,North,0,0.0,0.0,61,0.00,,---,0.00,VWS V14.01,2013-07-22 05:37:00,
2013-07-22 01:42:00,0.9,-9.4,29.35,North,0,0.0,0.0,61,0.00,,---,0.00,VWS V14.01,2013-07-22 05:42:00,
2013-07-22 01:47:00,1.6,-8.7,29.35,North,0,0.0,0.0,61,0.00,,---,0.00,VWS V14.01,2013-07-22 05:47:00,
2013-07-22 01:52:00,2.1,-8.2,29.35,North,0,0.0,0.0,61,0.00,,---,0.00,VWS V14.01,2013-07-22 05:52:00,
2013-07-22 01:58:00,2.8,-7.6,29.35,North,0,0.0,0.0,61,0.00,,---,0.00,VWS V14.01,2013-07-22 05:58:00,
2013-07-22 02:03:00,3.2,-7.2,29.35,North,0,0.0,0.0,61,0.00,,---,0.00,VWS V14.01,2013-07-22 06:03:00,
2013-07-22 02:08:00,3.7,-6.7,29.35,North,0,0.0,0.0,61,0.00,,---,0.00,VWS V14.01,2013-07-22 06:08:00,
2013-07-22 02:13:00,4.1,-6.3,29.35,North,0,0.0,0.0,61,0.00,,---,0.00,VWS V14.01,2013-07-22 06:13:00,
2013-07-22 02:18:00,4.6,-5.8,29.35,North,0,0.0,0.0,61,0.00,,---,0.00,VWS V14.01,2013-07-22 06:18:00,
2013-07-22 02:23:00,5.0,-5.5,29.35,North,0,0.0,0.0,61,0.00,,---,0.00,VWS V14.01,2013-07-22 06:23:00,
2013-07-22 02:28:00,5.5,-5.0,29.35,North,0,0.0,0.0,61,0.00,,---,0.00,VWS V14.01,2013-07-22 06:28:00,
2013-07-22 02:33:00,5.9,-4.6,29.35,North,0,0.0,0.0,61,0.00,,---,0.00,VWS V14.01,2013-07-22 06:33:00,
2013-07-22 02:38:00,6.1,-4.5,29.35,North,0,0.0,0.0,61,0.00,,---,0.00,VWS V14.01,2013-07-22 06:38:00,
2013-07-22 02:43:00,6.3,-4.3,29.35,North,0,0.0,0.0,61,0.00,,---,0.00,VWS V14.01,2013-07-22 06:43:00,
2013-07-22 02:48:00,6.6,-4.0,29.35,North,0,0.0,0.0,61,0.00,,---,0.00,VWS V14.01,2013-07-22 06:48:00,
2013-07-22 02:53:00,7.0,-3.6,29.35,North,0,0.0,0.0,61,0.00,,---,0.00,VWS V14.01,2013-07-22 06:53:00,
2013-07-22 02:58:00,7.2,-3.4,29.35,North,0,0.0,0.0,61,0.00,,---,0.00,VWS V14.01,2013-07-22 06:58:00,
2013-07-22 03:03:00,7.5,-3.1,29.35,North,0,0.0,0.0,61,0.00,,---,0.00,VWS V14.01,2013-07-22 07:03:00,
2013-07-22 03:08:00,7.9,-2.8,29.35,North,0,0.0,0.0,61,0.00,,---,0.00,VWS V14.01,2013-07-22 07:08:00,
2013-07-22 03:13:00,7.9,-2.8,29.32,North,0,0.0,0.0,61,0.00,,---,0.00,VWS V14.01,2013-07-22 07:13:00,
2013-07-22 03:18:00,8.2,-2.4,29.32,North,0,0.0,0.0,61,0.00,,---,0.00,VWS V14.01,2013-07-22 07:18:00,
2013-07-22 03:23:00,8.6,-2.1,29.32,North,0,0.0,0.0,61,0.00,,---,0.00,VWS V14.01,2013-07-22 07:23:00,
2013-07-22 03:29:00,8.8,-1.9,29.32,North,0,0.0,0.0,61,0.00,,---,0.00,VWS V14.01,2013-07-22 07:29:00,
2013-07-22 03:34:00,9.1,-1.6,29.32,North,0,0.0,0.0,61,0.00,,---,0.00,VWS V14.01,2013-07-22 07:34:00,
2013-07-22 03:39:00,9.3,-1.4,29.35,North,0,0.0,0.0,61,0.00,,---,0.00,VWS V14.01,2013-07-22 07:39:00,
2013-07-22 03:44:00,9.5,-1.2,29.35,North,0,0.0,0.0,61,0.00,,---,0.00,VWS V14.01,2013-07-22 07:44:00,
2013-07-22 03:49:00,9.7,-1.0,29.35,North,0,0.0,0.0,61,0.00,,---,0.00,VWS V14.01,2013-07-22 07:49:00,
2013-07-22 03:54:00,10.0,-0.7,29.32,North,0,0.0,0.0,61,0.00,,---,0.00,VWS V14.01,2013-07-22 07:54:00,
2013-07-22 03:59:00,10.2,-0.5,29.32,North,0,0.0,0.0,61,0.00,,---,0.00,VWS V14.01,2013-07-22 07:59:00,
2013-07-22 04:04:00,10.4,-0.4,29.32,North,0,0.0,0.0,61,0.00,,---,0.00,VWS V14.01,2013-07-22 08:04:00,
2013-07-22 04:09:00,10.6,-0.2,29.32,North,0,0.0,0.0,61,0.00,,---,0.00,VWS V14.01,2013-07-22 08:09:00,
2013-07-22 04:14:00,9.3,-1.4,29.32,North,0,0.0,0.0,61,0.00,,---,0.00,VWS V14.01,2013-07-22 08:14:00,
2013-07-22 04:19:00,7.9,-2.8,29.32,North,0,0.0,0.0,61,0.00,,---,0.00,VWS V14.01,2013-07-22 08:19:00,
2013-07-22 04:25:00,7.2,-3.4,29.32,North,0,0.0,0.0,61,0.00,,---,0.00,VWS V14.01,2013-07-22 08:25:00,
2013-07-22 04:30:00,6.3,-4.3,29.32,North,0,0.0,0.0,61,0.00,,---,0.00,VWS V14.01,2013-07-22 08:30:00,
2013-07-22 04:35:00,5.4,-5.2,29.32,North,0,0.0,0.0,61,0.00,,---,0.00,VWS V14.01,2013-07-22 08:35:00,
2013-07-22 04:40:00,4.6,-5.8,29.32,North,0,0.0,0.0,61,0.00,,---,0.00,VWS V14.01,2013-07-22 08:40:00,
2013-07-22 04:45:00,4.3,-6.2,29.32,North,0,0.0,0.0,61,0.00,,---,0.00,VWS V14.01,2013-07-22 08:45:00,
2013-07-22 04:50:00,3.7,-6.7,29.32,North,0,0.0,0.0,61,0.00,,---,0.00,VWS V14.01,2013-07-22 08:50:00,
2013-07-22 04:56:00,3.0,-7.4,29.32,North,0,0.0,0.0,61,0.00,,---,0.00,VWS V14.01,2013-07-22 08:56:00,
2013-07-22 05:01:00,2.5,-7.9,29.32,North,0,0.0,0.0,61,0.00,,---,0.00,VWS V14.01,2013-07-22 09:01:00,
2013-07-22 05:06:00,2.1,-8.2,29.32,North,0,0.0,0.0,61,0.00,,---,0.00,VWS V14.01,2013-07-22 09:06:00,
2013-07-22 05:11:00,1.8,-8.6,29.32,North,0,0.0,0.0,61,0.00,,---,0.00,VWS V14.01,2013-07-22 09:11:00,
2013-07-22 05:16:00,1.4,-8.9,29.32,North,0,0.0,0.0,61,0.00,,---,0.00,VWS V14.01,2013-07-22 09:16:00,
2013-07-22 05:22:00,1.2,-9.1,29.32,North,0,0.0,0.0,61,0.00,,---,0.00,VWS V14.01,2013-07-22 09:22:00,
2013-07-22 05:27:00,0.7,-9.6,29.35,North,0,0.0,0.0,61,0.00,,---,0.00,VWS V14.01,2013-07-22 09:27:00,
2013-07-22 05:32:00,0.7,-9.6,29.35,North,0,0.0,0.0,61,0.00,,---,0.00,VWS V14.01,2013-07-22 09:32:00,
2013-07-22 05:37:00,0.3,-9.9,29.35,North,0,0.0,0.0,61,0.00,,---,0.00,VWS V14.01,2013-07-22 09:37:00,
2013-07-22 05:42:00,0.3,-9.9,29.35,North,0,0.0,0.0,61,0.00,,---,0.00,VWS V14.01,2013-07-22 09:42:00,
2013-07-22 05:47:00,0.0,-10.3,29.35,North,0,0.0,0.0,61,0.00,,---,0.00,VWS V14.01,2013-07-22 09:47:00,
2013-07-22 05:52:00,-0.2,-10.4,29.35,North,0,0.0,0.0,61,0.00,,---,0.00,VWS V14.01,2013-07-22 09:52:00,
2013-07-22 05:57:00,-0.4,-10.6,29.35,North,0,0.0,0.0,61,0.00,,---,0.00,VWS V14.01,2013-07-22 09:57:00,
2013-07-22 06:02:00,-0.6,-10.8,29.35,North,0,0.0,0.0,61,0.00,,---,0.00,VWS V14.01,2013-07-22 10:02:00,
2013-07-22 06:07:00,-0.8,-11.0,29.35,North,0,0.0,0.0,61,0.00,,---,0.00,VWS V14.01,2013-07-22 10:07:00,
2013-07-22 06:12:00,-0.9,-11.1,29.35,North,0,0.0,0.0,61,0.00,,---,0.00,VWS V14.01,2013-07-22 10:12:00,
2013-07-22 06:17:00,-1.1,-11.3,29.35,North,0,0.0,0.0,61,0.00,,---,0.00,VWS V14.01,2013-07-22 10:17:00,
2013-07-22 06:22:00,-1.3,-11.5,29.35,North,0,0.0,0.0,61,0.00,,---,0.00,VWS V14.01,2013-07-22 10:22:00,
2013-07-22 06:27:00,-1.5,-11.6,29.35,North,0,0.0,0.0,61,0.00,,---,0.00,VWS V14.01,2013-07-22 10:27:00,
2013-07-22 06:32:00,-1.8,-12.0,29.35,North,0,0.0,0.0,61,0.00,,---,0.00,VWS V14.01,2013-07-22 10:32:00,
2013-07-22 06:37:00,-1.8,-12.0,29.35,North,0,0.0,0.0,61,0.00,,---,0.00,VWS V14.01,2013-07-22 10:37:00,
2013-07-22 06:42:00,-2.0,-12.2,29.35,North,0,0.0,0.0,61,0.00,,---,0.00,VWS V14.01,2013-07-22 10:42:00,
2013-07-22 06:47:00,-2.2,-12.3,29.35,North,0,0.0,0.0,61,0.00,,---,0.00,VWS V14.01,2013-07-22 10:47:00,
2013-07-22 06:52:00,-2.2,-12.3,29.35,North,0,0.0,0.0,61,0.00,,---,0.00,VWS V14.01,2013-07-22 10:52:00,
2013-07-22 06:57:00,-1.3,-11.5,29.35,North,0,0.0,0.0,61,0.00,,---,0.00,VWS V14.01,2013-07-22 10:57:00,
2013-07-22 07:02:00,-0.6,-10.8,29.35,North,0,0.0,0.0,61,0.00,,---,0.00,VWS V14.01,2013-07-22 11:02:00,
2013-07-22 07:07:00,0.0,-10.3,29.35,North,0,0.0,0.0,61,0.00,,---,0.00,VWS V14.01,2013-07-22 11:07:00,
2013-07-22 07:12:00,0.5,-9.8,29.35,North,0,0.0,0.0,61,0.00,,---,0.00,VWS V14.01,2013-07-22 11:12:00,
2013-07-22 07:17:00,1.2,-9.1,29.35,North,0,0.0,0.0,61,0.00,,---,0.00,VWS V14.01,2013-07-22 11:17:00,
2013-07-22 07:22:00,1.9,-8.4,29.35,North,0,0.0,0.0,61,0.00,,---,0.00,VWS V14.01,2013-07-22 11:22:00,
2013-07-22 07:27:00,2.5,-7.9,29.35,North,0,0.0,0.0,61,0.00,,---,0.00,VWS V14.01,2013-07-22 11:27:00,
2013-07-22 07:32:00,3.0,-7.4,29.35,North,0,0.0,0.0,61,0.00,,---,0.00,VWS V14.01,2013-07-22 11:32:00,
2013-07-22 07:37:00,3.4,-7.0,29.35,North,0,0.0,0.0,61,0.00,,---,0.00,VWS V14.01,2013-07-22 11:37:00,
2013-07-22 07:42:00,3.9,-6.5,29.35,North,0,0.0,0.0,61,0.00,,---,0.00,VWS V14.01,2013-07-22 11:42:00,
2013-07-22 07:47:00,4.5,-6.0,29.35,North,0,0.0,0.0,61,0.00,,---,0.00,VWS V14.01,2013-07-22 11:47:00,
2013-07-22 07:52:00,5.0,-5.5,29.35,North,0,0.0,0.0,61,0.00,,---,0.00,VWS V14.01,2013-07-22 11:52:00,
2013-07-22 07:57:00,5.4,-5.2,29.35,North,0,0.0,0.0,61,0.00,,---,0.00,VWS V14.01,2013-07-22 11:57:00,
2013-07-22 08:02:00,5.5,-5.0,29.35,North,0,0.0,0.0,61,0.00,,---,0.00,VWS V14.01,2013-07-22 12:02:00,
2013-07-22 08:07:00,5.9,-4.6,29.35,North,0,0.0,0.0,61,0.00,,---,0.00,VWS V14.01,2013-07-22 12:07:00,
2013-07-22 08:12:00,6.3,-4.3,29.35,North,0,0.0,0.0,61,0.00,,---,0.00,VWS V14.01,2013-07-22 12:12:00,
2013-07-22 08:17:00,6.4,-4.1,29.35,North,0,0.0,0.0,61,0.00,,---,0.00,VWS V14.01,2013-07-22 12:17:00,
2013-07-22 08:22:00,6.8,-3.8,29.35,North,0,0.0,0.0,61,0.00,,---,0.00,VWS V14.01,2013-07-22 12:22:00,
2013-07-22 08:27:00,7.2,-3.4,29.35,North,0,0.0,0.0,61,0.00,,---,0.00,VWS V14.01,2013-07-22 12:27:00,
2013-07-22 08:32:00,7.2,-3.4,29.35,North,0,0.0,0.0,61,0.00,,---,0.00,VWS V14.01,2013-07-22 12:32:00,
2013-07-22 08:37:00,7.5,-3.1,29.35,North,0,0.0,0.0,61,0.00,,---,0.00,VWS V14.01,2013-07-22 12:37:00,
2013-07-22 08:42:00,7.9,-2.8,29.35,North,0,0.0,0.0,61,0.00,,---,0.00,VWS V14.01,2013-07-22 12:42:00,
2013-07-22 08:47:00,8.1,-2.6,29.35,North,0,0.0,0.0,61,0.00,,---,0.00,VWS V14.01,2013-07-22 12:47:00,
2013-07-22 08:52:00,8.4,-2.2,29.35,North,0,0.0,0.0,61,0.00,,---,0.00,VWS V14.01,2013-07-22 12:52:00,
2013-07-22 08:57:00,8.6,-2.1,29.35,North,0,0.0,0.0,61,0.00,,---,0.00,VWS V14.01,2013-07-22 12:57:00,
2013-07-22 09:02:00,8.8,-1.9,29.35,North,0,0.0,0.0,61,0.00,,---,0.00,VWS V14.01,2013-07-22 13:02:00,
2013-07-22 09:07:00,9.1,-1.6,29.35,North,0,0.0,0.0,61,0.00,,---,0.00,VWS V14.01,2013-07-22 13:07:00,
2013-07-22 09:12:00,9.3,-1.4,29.35,North,0,0.0,0.0,61,0.00,,---,0.00,VWS V14.01,2013-07-22 13:12:00,
2013-07-22 09:17:00,9.5,-1.2,29.35,North,0,0.0,0.0,61,0.00,,---,0.00,VWS V14.01,2013-07-22 13:17:00,
2013-07-22 09:22:00,9.7,-1.0,29.35,North,0,0.0,0.0,61,0.00,,---,0.00,VWS V14.01,2013-07-22 13:22:00,
2013-07-22 09:27:00,10.0,-0.7,29.35,North,0,0.0,0.0,61,0.00,,---,0.00,VWS V14.01,2013-07-22 13:27:00,
2013-07-22 09:32:00,10.2,-0.5,29.35,North,0,0.0,0.0,61,0.00,,---,0.00,VWS V14.01,2013-07-22 13:32:00,
2013-07-22 09:37:00,10.4,-0.4,29.35,North,0,0.0,0.0,61,0.00,,---,0.00,VWS V14.01,2013-07-22 13:37:00,
2013-07-22 09:42:00,10.4,-0.4,29.35,North,0,0.0,0.0,61,0.00,,---,0.00,VWS V14.01,2013-07-22 13:42:00,
2013-07-22 09:47:00,9.0,-1.7,29.35,North,0,0.0,0.0,61,0.00,,---,0.00,VWS V14.01,2013-07-22 13:47:00,
2013-07-22 09:52:00,7.7,-2.9,29.35,North,0,0.0,0.0,61,0.00,,---,0.00,VWS V14.01,2013-07-22 13:52:00,
2013-07-22 09:57:00,6.8,-3.8,29.35,North,0,0.0,0.0,61,0.00,,---,0.00,VWS V14.01,2013-07-22 13:57:00,
2013-07-22 10:02:00,6.1,-4.5,29.35,North,0,0.0,0.0,61,0.00,,---,0.00,VWS V14.01,2013-07-22 14:02:00,
2013-07-22 10:07:00,5.4,-5.2,29.35,North,0,0.0,0.0,61,0.00,,---,0.00,VWS V14.01,2013-07-22 14:07:00,
2013-07-22 10:12:00,4.5,-6.0,29.35,North,0,0.0,0.0,61,0.00,,---,0.00,VWS V14.01,2013-07-22 14:12:00,
2013-07-22 10:17:00,4.1,-6.3,29.35,North,0,0.0,0.0,61,0.00,,---,0.00,VWS V14.01,2013-07-22 14:17:00,
2013-07-22 10:22:00,3.6,-6.9,29.35,North,0,0.0,0.0,61,0.00,,---,0.00,VWS V14.01,2013-07-22 14:22:00,
2013-07-22 10:27:00,2.8,-7.6,29.35,North,0,0.0,0.0,61,0.00,,---,0.00,VWS V14.01,2013-07-22 14:27:00,
2013-07-22 10:33:00,2.7,-7.7,29.35,North,0,0.0,0.0,61,0.00,,---,0.00,VWS V14.01,2013-07-22 14:33:00,
2013-07-22 10:38:00,2.1,-8.2,29.35,North,0,0.0,0.0,61,0.00,,---,0.00,VWS V14.01,2013-07-22 14:38:00,
2013-07-22 10:43:00,1.8,-8.6,29.35,North,0,0.0,0.0,61,0.00,,---,0.00,VWS V14.01,2013-07-22 14:43:00,
2013-07-22 10:48:00,1.6,-8.7,29.35,North,0,0.0,0.0,61,0.00,,---,0.00,VWS V14.01,2013-07-22 14:48:00,
2013-07-22 10:53:00,1.2,-9.1,29.35,North,0,0.0,0.0,61,0.00,,---,0.00,VWS V14.01,2013-07-22 14:53:00,
2013-07-22 10:58:00,0.9,-9.4,29.35,North,0,0.0,0.0,61,0.00,,---,0.00,VWS V14.01,2013-07-22 14:58:00,
2013-07-22 11:04:00,0.7,-9.6,29.35,North,0,0.0,0.0,61,0.00,,---,0.00,VWS V14.01,2013-07-22 15:04:00,
2013-07-22 11:09:00,0.3,-9.9,29.35,North,0,0.0,0.0,61,0.00,,---,0.00,VWS V14.01,2013-07-22 15:09:00,
2013-07-22 11:14:00,0.1,-10.1,29.35,North,0,0.0,0.0,61,0.00,,---,0.00,VWS V14.01,2013-07-22 15:14:00,
2013-07-22 11:19:00,1.9,-8.4,29.35,North,0,0.0,0.0,61,0.00,,---,0.00,VWS V14.01,2013-07-22 15:19:00,
2013-07-22 11:24:00,1.9,-8.4,29.35,North,0,0.0,0.0,61,0.00,,---,0.00,VWS V14.01,2013-07-22 15:24:00,
2013-07-22 11:29:00,1.4,-8.9,29.35,North,0,0.0,0.0,61,0.00,,---,0.00,VWS V14.01,2013-07-22 15:29:00,
2013-07-22 11:34:00,1.2,-9.1,29.35,North,0,0.0,0.0,61,0.00,,---,0.00,VWS V14.01,2013-07-22 15:34:00,
2013-07-22 11:39:00,0.9,-9.4,29.35,North,0,0.0,0.0,61,0.00,,---,0.00,VWS V14.01,2013-07-22 15:39:00,
2013-07-22 11:44:00,0.5,-9.8,29.35,North,0,0.0,0.0,61,0.00,,---,0.00,VWS V14.01,2013-07-22 15:44:00,
2013-07-22 11:49:00,0.3,-9.9,29.35,North,0,0.0,0.0,61,0.00,,---,0.00,VWS V14.01,2013-07-22 15:49:00,
2013-07-22 11:54:00,0.0,-10.3,29.32,North,0,0.0,0.0,61,0.00,,---,0.00,VWS V14.01,2013-07-22 15:54:00,
2013-07-22 11:59:00,-0.2,-10.4,29.32,North,0,0.0,0.0,61,0.00,,---,0.00,VWS V14.01,2013-07-22 15:59:00,
2013-07-22 12:04:00,-0.6,-10.8,29.32,North,0,0.0,0.0,61,0.00,,---,0.00,VWS V14.01,2013-07-22 16:04:00,
2013-07-22 12:09:00,-0.6,-10.8,29.32,North,0,0.0,0.0,61,0.00,,---,0.00,VWS V14.01,2013-07-22 16:09:00,
2013-07-22 12:14:00,-0.9,-11.1,29.32,North,0,0.0,0.0,61,0.00,,---,0.00,VWS V14.01,2013-07-22 16:14:00,
2013-07-22 12:19:00,-0.9,-11.1,29.32,North,0,0.0,0.0,61,0.00,,---,0.00,VWS V14.01,2013-07-22 16:19:00,
2013-07-22 12:24:00,-1.1,-11.3,29.32,North,0,0.0,0.0,61,0.00,,---,0.00,VWS V14.01,2013-07-22 16:24:00,
2013-07-22 12:30:00,-1.3,-11.5,29.32,North,0,0.0,0.0,61,0.00,,---,0.00,VWS V14.01,2013-07-22 16:30:00,
2013-07-22 12:35:00,-1.5,-11.6,29.32,North,0,0.0,0.0,61,0.00,,---,0.00,VWS V14.01,2013-07-22 16:35:00,
2013-07-22 12:41:00,-1.7,-11.8,29.32,North,0,0.0,0.0,61,0.00,,---,0.00,VWS V14.01,2013-07-22 16:41:00,
2013-07-22 12:46:00,-1.8,-12.0,29.32,North,0,0.0,0.0,61,0.00,,---,0.00,VWS V14.01,2013-07-22 16:46:00,
2013-07-22 12:52:00,-2.0,-12.2,29.32,North,0,0.0,0.0,61,0.00,,---,0.00,VWS V14.01,2013-07-22 16:52:00,
2013-07-22 12:58:00,-2.0,-12.2,29.32,North,0,0.0,0.0,61,0.00,,---,0.00,VWS V14.01,2013-07-22 16:58:00,
2013-07-22 13:03:00,-2.2,-12.3,29.32,North,0,0.0,0.0,61,0.00,,---,0.00,VWS V14.01,2013-07-22 17:03:00,
2013-07-22 13:08:00,-1.5,-11.6,29.32,North,0,0.0,0.0,61,0.00,,---,0.00,VWS V14.01,2013-07-22 17:08:00,
2013-07-22 13:13:00,-0.9,-11.1,29.32,North,0,0.0,0.0,61,0.00,,---,0.00,VWS V14.01,2013-07-22 17:13:00,
2013-07-22 13:18:00,0.0,-10.3,29.32,North,0,0.0,0.0,61,0.00,,---,0.00,VWS V14.01,2013-07-22 17:18:00,
2013-07-22 13:23:00,0.5,-9.8,29.32,North,0,0.0,0.0,61,0.00,,---,0.00,VWS V14.01,2013-07-22 17:23:00,
2013-07-22 13:29:00,1.2,-9.1,29.32,North,0,0.0,0.0,61,0.00,,---,0.00,VWS V14.01,2013-07-22 17:29:00,
2013-07-22 13:34:00,1.8,-8.6,29.32,North,0,0.0,0.0,61,0.00,,---,0.00,VWS V14.01,2013-07-22 17:34:00,
2013-07-22 13:40:00,2.5,-7.9,29.32,North,0,0.0,0.0,61,0.00,,---,0.00,VWS V14.01,2013-07-22 17:40:00,
2013-07-22 13:45:00,2.8,-7.6,29.32,North,0,0.0,0.0,61,0.00,,---,0.00,VWS V14.01,2013-07-22 17:45:00,
2013-07-22 13:50:00,3.4,-7.0,29.32,North,0,0.0,0.0,61,0.00,,---,0.00,VWS V14.01,2013-07-22 17:50:00,
2013-07-22 13:55:00,3.9,-6.5,29.32,North,0,0.0,0.0,61,0.00,,---,0.00,VWS V14.01,2013-07-22 17:55:00,
2013-07-22 14:00:00,4.5,-6.0,29.32,North,0,0.0,0.0,61,0.00,,---,0.00,VWS V14.01,2013-07-22 18:00:00,
2013-07-22 14:05:00,4.8,-5.7,29.32,North,0,0.0,0.0,61,0.00,,---,0.00,VWS V14.01,2013-07-22 18:05:00,
2013-07-22 14:11:00,5.2,-5.3,29.32,North,0,0.0,0.0,61,0.00,,---,0.00,VWS V14.01,2013-07-22 18:11:00,
2013-07-22 14:16:00,5.7,-4.8,29.32,North,0,0.0,0.0,61,0.00,,---,0.00,VWS V14.01,2013-07-22 18:16:00,
2013-07-22 14:21:00,5.9,-4.6,29.32,North,0,0.0,0.0,61,0.00,,---,0.00,VWS V14.01,2013-07-22 18:21:00,
2013-07-22 14:26:00,6.3,-4.3,29.32,North,0,0.0,0.0,61,0.00,,---,0.00,VWS V14.01,2013-07-22 18:26:00,
2013-07-22 14:31:00,6.4,-4.1,29.32,North,0,0.0,0.0,61,0.00,,---,0.00,VWS V14.01,2013-07-22 18:31:00,
2013-07-22 14:36:00,6.8,-3.8,29.32,North,0,0.0,0.0,61,0.00,,---,0.00,VWS V14.01,2013-07-22 18:36:00,
2013-07-22 14:41:00,7.0,-3.6,29.32,North,0,0.0,0.0,61,0.00,,---,0.00,VWS V14.01,2013-07-22 18:41:00,
2013-07-22 14:46:00,7.3,-3.3,29.32,North,0,0.0,0.0,61,0.00,,---,0.00,VWS V14.01,2013-07-22 18:46:00,
2013-07-22 14:51:00,7.7,-2.9,29.32,North,0,0.0,0.0,61,0.00,,---,0.00,VWS V14.01,2013-07-22 18:51:00,
2013-07-22 14:56:00,7.9,-2.8,29.32,North,0,0.0,0.0,61,0.00,,---,0.00,VWS V14.01,2013-07-22 18:56:00,
2013-07-22 15:01:00,8.1,-2.6,29.32,North,0,0.0,0.0,61,0.00,,---,0.00,VWS V14.01,2013-07-22 19:01:00,
2013-07-22 15:07:00,8.4,-2.2,29.32,North,0,0.0,0.0,61,0.00,,---,0.00,VWS V14.01,2013-07-22 19:07:00,
2013-07-22 15:12:00,8.8,-1.9,29.32,North,0,0.0,0.0,61,0.00,,---,0.00,VWS V14.01,2013-07-22 19:12:00,
2013-07-22 15:17:00,9.0,-1.7,29.32,North,0,0.0,0.0,61,0.00,,---,0.00,VWS V14.01,2013-07-22 19:17:00,
2013-07-22 15:22:00,9.3,-1.4,29.29,North,0,0.0,0.0,61,0.00,,---,0.00,VWS V14.01,2013-07-22 19:22:00,
2013-07-22 15:27:00,9.5,-1.2,29.29,North,0,0.0,0.0,61,0.00,,---,0.00,VWS V14.01,2013-07-22 19:27:00,
2013-07-22 15:32:00,9.7,-1.0,29.29,North,0,0.0,0.0,61,0.00,,---,0.00,VWS V14.01,2013-07-22 19:32:00,
2013-07-22 15:38:00,10.0,-0.7,29.29,North,0,0.0,0.0,61,0.00,,---,0.00,VWS V14.01,2013-07-22 19:38:00,
2013-07-22 15:43:00,11.5,0.6,29.29,North,0,0.0,0.0,61,0.00,,---,0.00,VWS V14.01,2013-07-22 19:43:00,
2013-07-22 15:48:00,11.1,0.3,29.29,North,0,0.0,0.0,61,0.00,,---,0.00,VWS V14.01,2013-07-22 19:48:00,
2013-07-22 15:53:00,10.2,-0.5,29.29,North,0,0.0,0.0,61,0.00,,---,0.00,VWS V14.01,2013-07-22 19:53:00,
2013-07-22 15:58:00,8.8,-1.9,29.29,North,0,0.0,0.0,61,0.00,,---,0.00,VWS V14.01,2013-07-22 19:58:00,
2013-07-22 16:03:00,8.1,-2.6,29.29,North,0,0.0,0.0,61,0.00,,---,0.00,VWS V14.01,2013-07-22 20:03:00,
2013-07-22 16:08:00,7.3,-3.3,29.29,North,0,0.0,0.0,61,0.00,,---,0.00,VWS V14.01,2013-07-22 20:08:00,
2013-07-22 16:13:00,7.0,-3.6,29.29,North,0,0.0,0.0,61,0.00,,---,0.00,VWS V14.01,2013-07-22 20:13:00,
2013-07-22 16:17:00,6.4,-4.1,29.29,North,0,0.0,0.0,61,0.00,,---,0.00,VWS V14.01,2013-07-22 20:17:00,
2013-07-22 16:18:00,6.4,-4.1,29.29,North,0,0.0,0.0,61,0.00,,---,0.00,VWS V14.01,2013-07-22 20:18:00,
2013-07-22 16:19:00,6.3,-4.3,29.29,North,0,0.0,0.0,61,0.00,,---,0.00,VWS V14.01,2013-07-22 20:19:00,
2013-07-22 16:22:00,6.3,-4.3,29.29,North,0,0.0,0.0,61,0.00,,---,0.00,VWS V14.01,2013-07-22 20:22:00,
2013-07-22 16:27:00,5.5,-5.0,29.26,North,0,0.0,0.0,61,0.00,,---,0.00,VWS V14.01,2013-07-22 20:27:00,
2013-07-22 16:33:00,5.4,-5.2,29.26,North,0,0.0,0.0,61,0.00,,---,0.00,VWS V14.01,2013-07-22 20:33:00,
2013-07-22 16:38:00,4.8,-5.7,29.26,North,0,0.0,0.0,61,0.00,,---,0.00,VWS V14.01,2013-07-22 20:38:00,
2013-07-22 16:43:00,4.5,-6.0,29.26,North,0,0.0,0.0,61,0.00,,---,0.00,VWS V14.01,2013-07-22 20:43:00,
2013-07-22 16:48:00,4.3,-6.2,29.26,North,0,0.0,0.0,61,0.00,,---,0.00,VWS V14.01,2013-07-22 20:48:00,
2013-07-22 16:53:00,3.9,-6.5,29.26,North,0,0.0,0.0,61,0.00,,---,0.00,VWS V14.01,2013-07-22 20:53:00,
2013-07-22 16:58:00,3.7,-6.7,29.26,North,0,0.0,0.0,61,0.00,,---,0.00,VWS V14.01,2013-07-22 20:58:00,
2013-07-22 17:03:00,3.2,-7.2,29.26,North,0,0.0,0.0,61,0.00,,---,0.00,VWS V14.01,2013-07-22 21:03:00,
2013-07-22 17:08:00,3.2,-7.2,29.26,North,0,0.0,0.0,61,0.00,,---,0.00,VWS V14.01,2013-07-22 21:08:00,
2013-07-22 17:13:00,3.0,-7.4,29.26,North,0,0.0,0.0,61,0.00,,---,0.00,VWS V14.01,2013-07-22 21:13:00,
2013-07-22 17:18:00,2.8,-7.6,29.26,North,0,0.0,0.0,61,0.00,,---,0.00,VWS V14.01,2013-07-22 21:18:00,
2013-07-22 17:23:00,2.5,-7.9,29.26,North,0,0.0,0.0,61,0.00,,---,0.00,VWS V14.01,2013-07-22 21:23:00,
2013-07-22 17:28:00,2.5,-7.9,29.26,North,0,0.0,0.0,61,0.00,,---,0.00,VWS V14.01,2013-07-22 21:28:00,
2013-07-22 17:33:00,2.1,-8.2,29.26,North,0,0.0,0.0,61,0.00,,---,0.00,VWS V14.01,2013-07-22 21:33:00,
2013-07-22 17:38:00,1.9,-8.4,29.26,North,0,0.0,0.0,61,0.00,,---,0.00,VWS V14.01,2013-07-22 21:38:00,
2013-07-22 17:43:00,1.9,-8.4,29.26,North,0,0.0,0.0,61,0.00,,---,0.00,VWS V14.01,2013-07-22 21:43:00,
2013-07-22 17:49:00,1.8,-8.6,29.26,North,0,0.0,0.0,61,0.00,,---,0.00,VWS V14.01,2013-07-22 21:49:00,
2013-07-22 17:54:00,1.6,-8.7,29.26,North,0,0.0,0.0,61,0.00,,---,0.00,VWS V14.01,2013-07-22 21:54:00,
2013-07-22 17:59:00,1.4,-8.9,29.26,North,0,0.0,0.0,61,0.00,,---,0.00,VWS V14.01,2013-07-22 21:59:00,
2013-07-22 18:04:00,1.2,-9.1,29.26,North,0,0.0,0.0,61,0.00,,---,0.00,VWS V14.01,2013-07-22 22:04:00,
2013-07-22 18:09:00,1.2,-9.1,29.26,North,0,0.0,0.0,61,0.00,,---,0.00,VWS V14.01,2013-07-22 22:09:00,
2013-07-22 18:15:00,0.9,-9.4,29.26,North,0,0.0,0.0,61,0.00,,---,0.00,VWS V14.01,2013-07-22 22:15:00,
2013-07-22 18:20:00,0.7,-9.6,29.26,North,0,0.0,0.0,61,0.05,,---,0.05,VWS V14.01,2013-07-22 22:20:00,
2013-07-22 18:26:00,0.7,-9.6,29.23,North,0,0.0,0.0,61,0.05,,---,0.05,VWS V14.01,2013-07-22 22:26:00,
2013-07-22 18:31:00,0.3,-9.9,29.23,North,0,0.0,0.0,61,0.05,,---,0.05,VWS V14.01,2013-07-22 22:31:00,
2013-07-22 18:36:00,0.3,-9.9,29.26,North,0,0.0,0.0,61,0.05,,---,0.05,VWS V14.01,2013-07-22 22:36:00,
2013-07-22 18:41:00,0.1,-10.1,29.26,North,0,0.0,0.0,61,0.05,,---,0.05,VWS V14.01,2013-07-22 22:41:00,
2013-07-22 18:47:00,2.1,-8.2,29.26,North,0,0.0,0.0,61,0.05,,---,0.05,VWS V14.01,2013-07-22 22:47:00,
2013-07-22 18:52:00,1.9,-8.4,29.23,North,0,0.0,0.0,61,0.05,,---,0.05,VWS V14.01,2013-07-22 22:52:00,
2013-07-22 18:57:00,1.6,-8.7,29.23,North,0,0.0,0.0,61,0.05,,---,0.05,VWS V14.01,2013-07-22 22:57:00,
2013-07-22 19:02:00,1.4,-8.9,29.23,North,0,0.0,0.0,61,0.05,,---,0.05,VWS V14.01,2013-07-22 23:02:00,
2013-07-22 19:07:00,1.2,-9.1,29.23,North,0,0.0,0.0,61,0.05,,---,0.05,VWS V14.01,2013-07-22 23:07:00,
2013-07-22 19:12:00,0.9,-9.4,29.23,North,0,0.0,0.0,61,0.05,,---,0.05,VWS V14.01,2013-07-22 23:12:00,
2013-07-22 19:17:00,0.7,-9.6,29.23,North,0,0.0,0.0,61,0.05,,---,0.05,VWS V14.01,2013-07-22 23:17:00,
2013-07-22 19:22:00,0.3,-9.9,29.23,North,0,0.0,0.0,61,0.04,,---,0.09,VWS V14.01,2013-07-22 23:22:00,
2013-07-22 19:27:00,0.3,-9.9,29.23,North,0,0.0,0.0,61,0.04,,---,0.09,VWS V14.01,2013-07-22 23:27:00,
2013-07-22 19:32:00,0.1,-10.1,29.23,North,0,0.0,0.0,61,0.04,,---,0.09,VWS V14.01,2013-07-22 23:32:00,
2013-07-22 19:37:00,0.0,-10.3,29.26,North,0,0.0,0.0,61,0.04,,---,0.09,VWS V14.01,2013-07-22 23:37:00,
2013-07-22 19:42:00,0.0,-10.3,29.26,North,0,0.0,0.0,61,0.04,,---,0.09,VWS V14.01,2013-07-22 23:42:00,
2013-07-22 19:47:00,-0.2,-10.4,29.26,North,0,0.0,0.0,61,0.04,,---,0.09,VWS V14.01,2013-07-22 23:47:00,
2013-07-22 19:52:00,-0.6,-10.8,29.23,North,0,0.0,0.0,61,0.04,,---,0.09,VWS V14.01,2013-07-22 23:52:00,
2013-07-22 19:57:00,-0.6,-10.8,29.23,North,0,0.0,0.0,61,0.04,,---,0.09,VWS V14.01,2013-07-22 23:57:00,
2013-07-22 20:03:00,-0.8,-11.0,29.23,North,0,0.0,0.0,61,0.04,,---,0.09,VWS V14.01,2013-07-23 00:03:00,
2013-07-22 20:08:00,-0.9,-11.1,29.23,North,0,0.0,0.0,61,0.04,,---,0.09,VWS V14.01,2013-07-23 00:08:00,
2013-07-22 20:13:00,-0.9,-11.1,29.23,North,0,0.0,0.0,61,0.04,,---,0.09,VWS V14.01,2013-07-23 00:13:00,
2013-07-22 20:18:00,-1.1,-11.3,29.23,North,0,0.0,0.0,61,0.04,,---,0.09,VWS V14.01,2013-07-23 00:18:00,
2013-07-22 20:23:00,-1.3,-11.5,29.23,North,0,0.0,0.0,61,0.00,,---,0.09,VWS V14.01,2013-07-23 00:23:00,
2013-07-22 20:28:00,-1.3,-11.5,29.23,North,0,0.0,0.0,61,0.00,,---,0.09,VWS V14.01,2013-07-23 00:28:00,
2013-07-22 20:33:00,-1.3,-11.5,29.23,North,0,0.0,0.0,61,0.00,,---,0.09,VWS V14.01,2013-07-23 00:33:00,
2013-07-22 20:38:00,-1.5,-11.6,29.23,North,0,0.0,0.0,61,0.00,,---,0.09,VWS V14.01,2013-07-23 00:38:00,
2013-07-22 20:43:00,-1.7,-11.8,29.23,North,0,0.0,0.0,61,0.00,,---,0.09,VWS V14.01,2013-07-23 00:43:00,
2013-07-22 20:48:00,-1.8,-12.0,29.23,North,0,0.0,0.0,61,0.00,,---,0.09,VWS V14.01,2013-07-23 00:48:00,
2013-07-22 20:53:00,-1.8,-12.0,29.23,North,0,0.0,0.0,61,0.00,,---,0.09,VWS V14.01,2013-07-23 00:53:00,
2013-07-22 20:58:00,-2.0,-12.2,29.23,North,0,0.0,0.0,61,0.00,,---,0.09,VWS V14.01,2013-07-23 00:58:00,
2013-07-22 21:04:00,-1.7,-11.8,29.23,North,0,0.0,0.0,61,0.00,,---,0.09,VWS V14.01,2013-07-23 01:04:00,
2013-07-22 21:09:00,-0.8,-11.0,29.23,North,0,0.0,0.0,61,0.00,,---,0.09,VWS V14.01,2013-07-23 01:09:00,
2013-07-22 21:14:00,0.0,-10.3,29.23,North,0,0.0,0.0,61,0.00,,---,0.09,VWS V14.01,2013-07-23 01:14:00,
2013-07-22 21:20:00,0.9,-9.4,29.23,North,0,0.0,0.0,61,0.00,,---,0.09,VWS V14.01,2013-07-23 01:20:00,
2013-07-22 21:45:00,4.1,-6.3,29.23,North,0,0.0,0.0,61,0.00,,---,0.09,VWS V14.01,2013-07-23 01:45:00,
2013-07-22 21:50:00,4.5,-6.0,29.23,North,0,0.0,0.0,61,0.00,,---,0.09,VWS V14.01,2013-07-23 01:50:00,
2013-07-22 21:55:00,5.0,-5.5,29.23,North,0,0.0,0.0,61,0.00,,---,0.09,VWS V14.01,2013-07-23 01:55:00,
2013-07-22 22:00:00,5.4,-5.2,29.23,North,0,0.0,0.0,61,0.00,,---,0.09,VWS V14.01,2013-07-23 02:00:00,
2013-07-22 22:05:00,5.7,-4.8,29.23,North,0,0.0,0.0,61,0.00,,---,0.09,VWS V14.01,2013-07-23 02:05:00,
2013-07-22 22:10:00,6.1,-4.5,29.23,North,0,0.0,0.0,61,0.04,,---,0.13,VWS V14.01,2013-07-23 02:10:00,
2013-07-22 22:15:00,6.4,-4.1,29.23,North,0,0.0,0.0,61,0.04,,---,0.13,VWS V14.01,2013-07-23 02:15:00,
2013-07-22 22:20:00,6.8,-3.8,29.23,North,0,0.0,0.0,61,0.04,,---,0.13,VWS V14.01,2013-07-23 02:20:00,
2013-07-22 22:26:00,7.0,-3.6,29.23,North,0,0.0,0.0,61,0.04,,---,0.13,VWS V14.01,2013-07-23 02:26:00,
2013-07-22 22:31:00,7.3,-3.3,29.23,North,0,0.0,0.0,61,0.04,,---,0.13,VWS V14.01,2013-07-23 02:31:00,
2013-07-22 22:36:00,7.7,-2.9,29.20,North,0,0.0,0.0,61,0.04,,---,0.13,VWS V14.01,2013-07-23 02:36:00,
2013-07-22 22:42:00,7.9,-2.8,29.20,North,0,0.0,0.0,61,0.04,,---,0.13,VWS V14.01,2013-07-23 02:42:00,
2013-07-22 22:47:00,8.2,-2.4,29.20,North,0,0.0,0.0,61,0.04,,---,0.13,VWS V14.01,2013-07-23 02:47:00,
2013-07-22 22:52:00,8.4,-2.2,29.20,North,0,0.0,0.0,61,0.08,,---,0.17,VWS V14.01,2013-07-23 02:52:00,
2013-07-22 22:57:00,8.8,-1.9,29.20,North,0,0.0,0.0,61,0.08,,---,0.17,VWS V14.01,2013-07-23 02:57:00,
2013-07-22 23:02:00,9.0,-1.7,29.20,North,0,0.0,0.0,61,0.08,,---,0.17,VWS V14.01,2013-07-23 03:02:00,
2013-07-22 23:07:00,9.3,-1.4,29.20,North,0,0.0,0.0,61,0.08,,---,0.17,VWS V14.01,2013-07-23 03:07:00,
2013-07-22 23:12:00,9.5,-1.2,29.20,North,0,0.0,0.0,61,0.04,,---,0.17,VWS V14.01,2013-07-23 03:12:00,
2013-07-22 23:18:00,9.7,-1.0,29.20,North,0,0.0,0.0,61,0.04,,---,0.17,VWS V14.01,2013-07-23 03:18:00,
2013-07-22 23:23:00,9.9,-0.9,29.20,North,0,0.0,0.0,61,0.04,,---,0.17,VWS V14.01,2013-07-23 03:23:00,
2013-07-22 23:28:00,10.2,-0.5,29.20,North,0,0.0,0.0,61,0.08,,---,0.21,VWS V14.01,2013-07-23 03:28:00,
2013-07-22 23:33:00,10.4,-0.4,29.20,North,0,0.0,0.0,61,0.08,,---,0.21,VWS V14.01,2013-07-23 03:33:00,
2013-07-22 23:38:00,10.8,0.0,29.20,North,0,0.0,0.0,61,0.08,,---,0.21,VWS V14.01,2013-07-23 03:38:00,
2013-07-22 23:43:00,10.9,0.1,29.20,North,0,0.0,0.0,61,0.08,,---,0.21,VWS V14.01,2013-07-23 03:43:00,
2013-07-22 23:48:00,11.1,0.3,29.20,North,0,0.0,0.0,61,0.08,,---,0.21,VWS V14.01,2013-07-23 03:48:00,
2013-07-22 23:54:00,11.3,0.5,29.20,North,0,0.0,0.0,61,0.08,,---,0.25,VWS V14.01,2013-07-23 03:54:00,